Weather History for Antalya, Turkey

Change the Weather History Date:

Friday, September 6, 2013

  Actual Average Record
Temperature  
Mean Temperature 80 °F -  
Max Temperature 89 °F 86 °F 100 °F (2006)
Min Temperature 70 °F 65 °F 62 °F (1997)
Cooling Degree Days 14    
Growing Degree Days 30 (Base 50)    
Moisture  
Dew Point 44 °F    
Average Humidity 31    
Maximum Humidity 57    
Minimum Humidity 13    
Precipitation  
Precipitation 0.00 in 0.03 in - ()
Sea Level Pressure  
Sea Level Pressure 29.83 in    
Wind  
Wind Speed 9 mph ()    
Max Wind Speed 16 mph    
Max Gust Speed -    
Visibility 6.1 miles    
Events      
Averages and records for this station are not official NWS values.
T = Trace of Precipitation, MM = Missing Value Source: Averaged Metar Reports

Daily Weather History Graph

Daily Weather History Graph

Search for Another Location

Airport:

Trip Planner

Search our weather history database for the weather conditions in past years. The results will help you decide how hot, cold, wet, or windy it might be!

Date:

Astronomy

Sep. 06, 2013 Rise Set
Actual Time 6:31 AM EEST 7:17 PM EEST
Civil Twilight 6:05 AM EEST 7:44 PM EEST
Nautical Twilight 5:34 AM EEST 8:15 PM EEST
Astronomical Twilight 5:02 AM EEST 8:47 PM EEST
Moon 7:20 AM EEST (9/6) 7:34 PM EEST (9/6)
Length of Visible Light 13h 38m
Length of Day
12h 46m
New Moon, 1% of the Moon is Illuminated
Sep 6
New Moon
Sep 12
First Quarter
Sep 19
Full
Sep 27
Last Quarter
Oct 5
New

Hourly Weather History & Observations

Time (EEST) Temp. Heat Index Dew Point Humidity Pressure Visibility Wind Dir Wind Speed Gust Speed Precip Events Conditions
12:20 AM 71.6 °F - 39.2 °F 31% 29.86 in - NNW 4.6 mph - N/A   Clear
12:50 AM 71.6 °F - 37.4 °F 29% 29.86 in - NW 6.9 mph - N/A   Clear
1:20 AM 73.4 °F - 37.4 °F 27% 29.86 in - NW 9.2 mph - N/A   Clear
1:50 AM 73.4 °F - 37.4 °F 27% 29.86 in - NW 9.2 mph - N/A   Clear
2:20 AM 73.4 °F - 37.4 °F 27% 29.86 in - NW 11.5 mph - N/A   Clear
2:50 AM 71.6 °F - 37.4 °F 29% 29.86 in - NW 9.2 mph - N/A   Clear
3:00 AM 72 °F - 38 °F 18% 29.83 in 6 mi NW 9.2 mph - -  
3:20 AM 73.4 °F - 37.4 °F 27% 29.83 in - NW 12.7 mph - N/A   Clear
3:50 AM 73.4 °F - 39.2 °F 29% 29.83 in - NW 11.5 mph - N/A   Clear
4:20 AM 69.8 °F - 37.4 °F 31% 29.83 in - NW 8.1 mph - N/A   Clear
4:50 AM 71.6 °F - 37.4 °F 29% 29.83 in - NW 8.1 mph - N/A   Clear
5:20 AM 71.6 °F - 37.4 °F 29% 29.83 in - NW 10.4 mph - N/A   Clear
5:50 AM 71.6 °F - 37.4 °F 29% 29.83 in - NW 11.5 mph - N/A   Clear
6:20 AM 71.6 °F - 37.4 °F 29% 29.83 in - NW 10.4 mph - N/A   Clear
6:50 AM 69.8 °F - 37.4 °F 31% 29.83 in - North 9.2 mph - N/A   Clear
7:20 AM 71.6 °F - 37.4 °F 29% 29.83 in - NW 11.5 mph - N/A   Clear
7:50 AM 75.2 °F - 37.4 °F 25% 29.83 in - NNW 13.8 mph - N/A   Clear
8:20 AM 75.2 °F - 39.2 °F 27% 29.86 in - NNW 9.2 mph - N/A   Clear
8:50 AM 78.8 °F - 37.4 °F 23% 29.86 in - NNW 16.1 mph - N/A   Clear
9:00 AM 79 °F - 38 °F 13% 29.83 in 6 mi NNW 16.1 mph - -  
9:20 AM 80.6 °F - 37.4 °F 21% 29.86 in - North 16.1 mph - N/A   Clear
9:50 AM 82.4 °F - 39.2 °F 21% 29.86 in - North 11.5 mph - N/A   Clear
10:20 AM 82.4 °F - 39.2 °F 21% 29.83 in - North 11.5 mph - N/A   Clear
10:50 AM 84.2 °F - 39.2 °F 20% 29.86 in - North 9.2 mph - N/A   Clear
11:20 AM 84.2 °F - 37.4 °F 19% 29.83 in - North 8.1 mph - N/A   Clear
11:50 AM 86.0 °F - 33.8 °F 15% 29.83 in - North 9.2 mph - N/A   Clear
12:20 PM 87.8 °F - 35.6 °F 16% 29.83 in - North 6.9 mph - N/A   Clear
12:50 PM 87.8 °F - 35.6 °F 16% 29.83 in - Variable 6.9 mph - N/A   Clear
1:20 PM 86.0 °F - 46.4 °F 25% 29.83 in - SSE 10.4 mph - N/A   Clear
1:50 PM 86.0 °F - 42.8 °F 22% 29.80 in - SSE 12.7 mph - N/A   Clear
2:20 PM 84.2 °F - 46.4 °F 27% 29.80 in - South 13.8 mph - N/A   Clear
2:50 PM 86.0 °F - 44.6 °F 23% 29.80 in - South 13.8 mph - N/A   Clear
3:00 PM 85 °F - 45 °F 15% 29.80 in 6 mi South 13.8 mph - -  
3:20 PM 84.2 °F - 48.2 °F 29% 29.80 in 6.2 mi South 13.8 mph - N/A   Partly Cloudy
3:50 PM 84.2 °F - 48.2 °F 29% 29.80 in 6.2 mi South 15.0 mph - N/A   Partly Cloudy
4:20 PM 84.2 °F - 51.8 °F 33% 29.80 in - South 12.7 mph - N/A   Clear
4:50 PM 82.4 °F 81.4 °F 53.6 °F 37% 29.80 in - South 12.7 mph - N/A   Clear
5:20 PM 82.4 °F 81.4 °F 53.6 °F 37% 29.80 in - South 13.8 mph - N/A   Clear
5:50 PM 82.4 °F 81.7 °F 55.4 °F 39% 29.80 in - South 9.2 mph - N/A   Clear
6:20 PM 82.4 °F 81.7 °F 55.4 °F 39% 29.80 in - SSE 6.9 mph - N/A   Clear
6:50 PM 80.6 °F 80.8 °F 57.2 °F 45% 29.80 in - SSE 3.5 mph - N/A   Clear
7:20 PM 77.0 °F - 57.2 °F 50% 29.83 in - ENE 3.5 mph - N/A   Clear
7:50 PM 77.0 °F - 57.2 °F 50% 29.83 in - NE 5.8 mph - N/A   Clear
8:20 PM 77.0 °F - 55.4 °F 47% 29.83 in - NE 4.6 mph - N/A   Clear
8:50 PM 77.0 °F - 55.4 °F 47% 29.86 in - NNE 4.6 mph - N/A   Clear
9:00 PM 76 °F - 55 °F 37% 29.86 in 6 mi NNE 4.6 mph - -  
9:20 PM 75.2 °F - 55.4 °F 50% 29.86 in - NE 4.6 mph - N/A   Clear
9:50 PM 75.2 °F - 55.4 °F 50% 29.86 in - NNE 4.6 mph - N/A   Clear
10:20 PM 73.4 °F - 55.4 °F 53% 29.86 in - North 4.6 mph - N/A   Clear
10:50 PM 71.6 °F - 55.4 °F 57% 29.86 in - NW 6.9 mph - N/A   Clear
11:20 PM 71.6 °F - 53.6 °F 53% 29.89 in - NNW 5.8 mph - N/A   Clear
11:50 PM 71.6 °F - 53.6 °F 53% 29.86 in - NNW 4.6 mph - N/A   Clear